Miscellaneous Local Product
Issued by NWS North Platte, NE

Home | Current Version | Previous Version | Graphics & Text | Print | Product List | Glossary On
Versions: 1 2 3 4 5 6 7 8 9 10 11 12 13 14 15 16 17 18 19 20 21 22 23 24 25 26 27 28 29 30 31 32 33 34 35 36 37 38 39 40 41 42 43 44 45 46 47 48 49 50
000
AXUS43 KLBF 270010
MISLBF


WESTERN AND NORTH CENTRAL NEBRASKA HOURLY WEATHER ROUNDUP
NATIONAL WEATHER SERVICE NORTH PLATTE NE
600 PM CST FRI DEC 26 2014

***STATIONS NOT REPORTING VARIABLES SUCH AS SKY/WEATHER OR
PRESSURE ARE PROVIDED BY THE NEBRASKA DEPARTMENT OF
ROADS...RAWS...AND APRS NETWORKS...AND ARE NOT UNDER
NATIONAL WEATHER SERVICE QUALITY CONTROL***

...OBSERVATIONS IN AND NEAR THE EASTERN PANHANDLE OF NEBRASKA...

CITY           SKY/WX    TMP DP  RH WIND       PRES   REMARKS
PINE RIDGE     CLOUDY    18  12  77 N6        30.09R WCI  10
CHADRON        CLOUDY    19  14  81 NE5       30.09S WCI  12
ALLIANCE       CLOUDY    18  13  80 N9        30.04R WCI   7
SIDNEY         LGT SNOW  16  12  84 N12       30.02R FOG     WCI   3
WHITECLAY        N/A     17  11  77 S3          N/A
LISCO            N/A     22  15  75 W7          N/A  WCI  13
BIG SPRINGS      N/A     20  18  91 N5          N/A  WCI  14
$$

...OBSERVATIONS IN NORTH CENTRAL NEBRASKA...

CITY           SKY/WX    TMP DP  RH WIND       PRES   REMARKS
VALENTINE      CLOUDY    20  16  84 N10       30.10R WCI   9
THEDFORD       LGT SNOW  21  19  91 N8        30.07R WCI  11
AINSWORTH      LGT SNOW  19  17  90 N13       30.08R WCI   6
O`NEILL        LGT SNOW  22  21  96 N14       30.07S WCI  10
ORD            LGT SNOW  22  19  89 N10       30.04S VSB 1   WCI  11
BROKEN BOW     LGT SNOW  22  18  85 N16G26    30.03S VSB 1   WCI   8
BROWNLEE         N/A     18  15  88 E12         N/A  WCI   5
SPRINGVIEW       N/A     19  17  90 NE5         N/A  WCI  12
BREWSTER         N/A     24  22  93 NE8         N/A  WCI  15
ROSE             N/A     27  25  93 NE10        N/A  WCI  17
SARGENT          N/A     21  19  91 MISG        N/A
COMSTOCK         N/A     28  25  87 N14         N/A  WCI  17
CHAMBERS         N/A     21  18  88 NE8         N/A  WCI  11
EWING            N/A     23  21  91 CALM        N/A
$$

...OBSERVATIONS IN SOUTHWEST NEBRASKA AND FAR NORTHEAST COLORADO...

CITY           SKY/WX    TMP DP  RH WIND       PRES   REMARKS
WRAY           LGT SNOW  21  18  91 NW8       30.02R WCI  11
HOLYOKE        LGT SNOW  21  18  86 N13       30.03R WCI   9
IMPERIAL       LGT SNOW  20  16  84 N15       30.03R FOG     WCI   6
OGALLALA       LGT SNOW  20  18  89 N12       30.05R WCI   9
NORTH PLATTE   LGT SNOW  21  16  81 N10       30.05R WCI  10
MCCOOK         CLOUDY    23  20  88 N10       30.03S WCI  12
LEXINGTON      LGT SNOW  24  22  91 N13       30.04R WCI  12
PAXTON           N/A     21  19  93 NW8         N/A  WCI  11
BRADY            N/A     20  16  85 CALM        N/A
GOTHENBURG       N/A     20  16  83 N13         N/A  WCI   7
CALLAWAY         N/A     19  17  91 N12         N/A  WCI   7
$$

...NORTH PLATTE AREA...

CITY           SKY/WX    TMP DP  RH WIND       PRES   REMARKS
AIRPORT        LGT SNOW  21  16  81 N10       30.05R WCI  10
DOWNTOWN         N/A     21  18  89 N7          N/A  WCI  12
$$

...SOME WEATHER OBSERVATIONS FROM AROUND THE REGION...

CITY           SKY/WX    TMP DP  RH WIND       PRES   REMARKS
DENVER         LGT SNOW  15  13  91 N6        29.96R FOG     WCI   6
LARAMIE        LGT SNOW   7   4  87 NW9       29.86R FOG     WCI  -7
CHEYENNE       LGT SNOW  12   8  84 N6        29.92R FOG     WCI   3
SCOTTSBLUFF    LGT SNOW  18  16  92 SW3       30.06R FOG
RAPID CITY     CLOUDY    18  13  80 CALM      30.10R
PIERRE         CLOUDY    18  12  77 N13       30.16S WCI   5
WINNER         FLURRIES  21  16  81 N15       30.12F WCI   8
SIOUX FALLS    LGT SNOW  24  21  88 N9        30.10R VSB 1   WCI  14
OMAHA          CLOUDY    33  30  88 N13       30.02R WCI  24
GRAND ISLAND   LGT SNOW  24  22  91 N17       30.04R VSB 3/4 WCI  11
KANSAS CITY    CLOUDY    39  34  82 NE8       29.93S WCI  33
WICHITA        CLOUDY    36  31  82 N12       29.97R WCI  28
HAYS           CLOUDY    28  19  69 N9        30.00F WCI  20
LIBERAL        CLOUDY    28  19  69 N10       30.04R WCI  19
GOODLAND       LGT SNOW  20  18  92 N10       29.99S FOG     WCI   9
$$



USA.gov is the U.S. government's official web portal to all federal, state and local government web resources and services.